Theta_e
306 305 306 307 306 307 307 307 308 307 306 305 307 307 306 303 305 307 304 306 308 310 309 308 307 306 307 307 306 304 306 307 306 306 304 302 303 304 305 314 319 336 336 335 334
305 303 305 304 305 306 307 307 306 305 305 306 307 306 303 304 307 305 305 307 308 308 306 307 306 306 305 307 307 304 305 306 306 305 306 303 302 303 303 312 323 325 331 334 336
303 302 302 303 303 303 306 306 305 302 303 304 306 303 300 306 308 306 305 306 307 307 307 307 306 306 305 305 306 307 306 306 307 307 306 303 303 302 302 317 316 322 321 326 331
301 301 301 300 300 302 305 305 304 302 300 298 298 298 304 308 307 305 306 307 308 308 307 307 305 305 306 306 305 306 306 307 307 306 306 303 302 302 302 303 304 310 317 322 331
301 300 299 299 300 302 303 302 302 300 297 297 299 301 308 308 305 306 306 308 308 308 307 306 306 306 306 306 306 306 306 306 306 306 305 304 303 301 301 300 304 305 321 326 330
301 300 299 299 299 300 298 297 297 297 296 299 301 307 309 309 304 306 306 308 309 308 308 307 307 305 306 306 306 305 306 307 307 306 305 305 304 303 302 301 304 322 326 327 329
301 300 299 299 299 298 296 296 296 296 296 301 302 308 309 307 305 305 306 309 309 308 308 307 306 305 305 306 306 306 307 306 307 307 306 304 304 303 303 302 305 322 325 325 324
301 300 300 300 298 297 296 296 296 296 302 301 305 308 309 305 305 305 307 309 309 308 307 308 307 306 306 306 307 308 307 307 307 307 307 304 304 309 310 307 304 323 323 323 323
301 300 300 299 297 296 296 296 296 301 302 306 308 307 306 304 304 304 306 307 309 309 308 308 307 307 309 311 312 309 304 310 308 305 305 305 308 309 312 315 317 322 323 323 322
301 300 300 298 296 296 296 296 297 301 304 306 306 305 305 303 302 305 306 308 309 310 310 308 308 308 308 313 314 311 309 310 309 310 308 308 310 311 309 312 313 321 322 322 321
302 300 299 296 296 296 299 302 300 301 301 301 301 302 302 302 306 307 305 307 309 311 312 310 308 307 309 311 309 308 311 308 309 309 309 311 309 311 309 310 311 320 321 322 321
302 300 297 296 296 297 301 301 300 299 300 300 299 300 301 301 305 306 305 309 310 310 310 308 306 309 311 313 315 310 307 310 311 309 308 309 310 310 309 309 312 315 313 313 320
302 299 297 296 298 298 298 299 300 301 303 298 298 300 301 302 306 306 304 306 310 310 309 309 310 308 311 313 316 316 315 313 313 310 309 310 309 309 307 307 311 312 311 310 313
301 298 297 296 303 299 299 299 300 299 300 301 301 302 302 303 307 304 304 307 310 309 308 310 307 309 311 312 311 319 313 314 313 312 309 308 312 309 307 307 308 309 309 310 311
301 297 297 296 300 300 297 299 299 301 299 300 300 300 302 304 304 306 304 306 308 308 307 308 307 308 310 311 309 316 312 314 311 310 309 306 309 309 307 311 310 308 307 307 308
299 298 296 300 299 296 298 299 299 298 296 299 300 302 304 304 304 304 307 305 306 309 308 308 307 308 308 307 307 310 311 312 312 310 308 307 307 308 309 311 310 307 306 305 304
298 298 297 296 300 297 298 300 297 298 294 295 301 302 303 303 304 305 306 304 302 304 304 306 309 306 307 308 308 307 311 312 310 308 307 305 308 307 307 307 307 306 305 304 303
299 297 296 296 296 298 300 294 293 293 292 297 300 301 304 302 304 305 308 303 304 305 300 303 305 307 306 307 308 307 308 308 310 310 308 305 309 306 306 305 303 303 302 301 301
299 299 299 296 297 299 294 291 295 296 297 298 299 301 300 303 302 304 303 302 303 303 303 302 306 306 307 307 307 309 306 306 307 299 306 307 307 306 306 305 303 302 300 299 298
299 300 300 296 297 299 291 295 293 294 297 299 299 299 297 299 303 304 305 301 304 303 303 306 304 306 307 307 308 309 308 308 305 303 306 308 308 307 307 305 303 301 299 298 296
300 297 298 296 298 292 292 289 290 292 298 299 300 296 302 298 298 301 304 301 300 302 303 306 304 305 306 307 308 307 308 308 305 305 308 307 307 303 306 304 301 300 299 297 295
298 296 296 295 291 285 291 289 295 294 297 297 298 301 300 300 301 300 303 301 298 299 306 305 305 302 308 308 307 307 309 309 307 307 303 308 307 305 304 302 299 298 297 296 294
297 296 296 296 291 288 287 289 294 296 297 298 296 299 300 300 297 302 301 299 297 300 304 304 299 299 302 303 304 307 308 309 307 305 306 305 306 304 303 300 297 296 295 294 293
296 298 297 295 292 294 287 288 289 295 298 298 298 299 299 297 293 296 301 298 297 299 300 302 303 303 305 306 302 306 308 308 308 304 308 304 307 304 303 299 296 295 294 293 293
295 299 296 295 293 293 292 292 294 293 296 297 297 298 298 294 295 293 295 298 298 297 299 297 294 297 302 301 299 301 302 304 308 307 305 306 306 305 302 298 295 294 294 294 294
295 297 294 296 294 295 295 292 296 296 295 295 296 296 298 296 296 294 297 296 297 295 297 296 293 291 290 296 297 298 298 298 300 305 307 307 305 303 300 295 295 295 294 294 294
296 295 299 299 297 293 293 296 296 296 295 295 296 296 298 297 295 295 295 294 296 294 291 291 286 285 288 285 287 288 290 297 300 303 306 306 303 299 297 298 295 294 294 294 294
Wind_Speed
6 7 9 10 11 12 13 13 14 14 15 16 16 16 15 14 6 4 7 10 9 13 16 17 17 18 11 1 2 3 2 4 4 5 7 7 9 7 10 5 5 6 6 4 28
6 7 9 9 10 12 13 13 13 14 16 16 16 15 13 12 5 10 8 12 11 12 13 13 10 13 5 5 3 3 3 4 6 8 10 10 7 8 9 12 5 11 11 14 17
6 8 9 10 11 11 13 14 14 15 16 17 17 14 9 7 2 2 12 13 11 11 8 8 10 7 5 4 5 3 4 5 14 10 8 10 11 7 11 5 9 9 9 8 6
6 7 9 10 12 12 13 15 15 15 15 17 14 9 7 2 3 4 14 13 8 10 8 11 6 6 4 5 6 5 6 9 8 11 7 8 10 14 6 4 14 11 11 8 13
6 7 8 11 13 14 14 14 15 15 15 12 9 8 3 1 3 6 11 11 8 10 7 4 4 3 4 4 7 2 6 9 9 11 10 6 7 8 15 13 12 13 10 6 7
7 9 10 11 13 14 14 15 14 14 14 8 6 5 2 3 2 8 10 8 8 10 8 3 1 3 2 1 2 5 13 16 14 12 8 7 6 7 7 10 13 8 11 6 11
8 10 11 13 13 14 15 15 15 14 7 5 3 4 2 2 2 7 9 4 5 5 4 4 1 0 2 4 4 7 9 14 12 5 4 4 6 5 15 11 7 7 10 6 8
8 11 12 13 14 15 15 14 14 5 4 2 3 2 1 1 3 8 8 3 3 2 2 2 4 5 3 1 5 4 4 6 5 4 4 5 6 13 21 6 8 6 4 3 8
8 10 13 14 15 16 15 13 4 2 4 3 3 2 2 1 2 7 7 5 7 4 5 3 2 3 1 3 1 4 2 7 6 6 3 2 7 17 14 13 11 6 4 8 9
8 9 12 13 14 15 14 5 2 2 4 4 5 1 3 4 8 6 8 5 2 4 2 1 2 2 2 6 7 7 3 4 5 9 14 11 12 15 13 15 11 4 4 9 10
8 9 11 12 13 13 11 2 3 3 3 2 2 2 2 11 2 2 9 5 2 1 1 3 3 4 7 9 2 3 4 7 5 2 9 9 17 17 17 21 19 9 9 9 11
8 9 10 10 11 9 4 5 2 1 2 1 3 3 1 4 3 4 13 2 3 3 5 5 1 9 2 12 7 5 4 3 5 6 8 16 18 14 18 18 15 13 13 11 9
7 8 9 9 6 5 9 5 3 1 1 1 1 2 1 4 2 5 5 2 2 5 5 1 4 9 1 9 15 7 2 1 2 3 3 3 11 18 12 15 13 14 12 10 13
7 7 7 7 1 3 3 3 3 2 4 4 2 2 2 1 1 2 2 1 2 3 5 4 4 6 7 5 4 4 5 6 6 2 3 2 3 11 10 8 10 12 12 12 7
7 6 4 5 2 2 1 1 1 1 4 3 2 3 3 1 3 2 1 1 2 3 3 4 7 7 4 4 2 5 10 5 5 6 3 8 5 6 2 8 10 11 11 10 12
6 4 1 1 1 2 1 1 1 6 3 3 3 4 3 3 1 3 2 3 2 3 2 3 0 2 2 10 6 8 5 7 0 3 5 7 3 9 8 8 10 13 12 12 13
6 3 2 1 0 2 1 2 5 5 5 4 0 3 2 4 4 4 3 5 3 4 4 6 1 4 3 5 5 8 4 2 4 5 1 3 8 1 4 6 10 10 10 11 11
6 4 2 2 1 1 2 5 4 3 5 2 1 1 2 3 1 4 3 3 5 4 3 2 5 4 5 2 3 4 3 3 3 2 0 6 3 2 4 6 6 9 8 9 10
9 5 2 2 3 2 4 4 7 6 4 6 2 4 4 1 0 3 3 2 2 4 4 2 5 4 0 1 0 6 4 3 4 3 4 2 2 2 4 6 7 7 8 9 8
11 6 1 2 2 4 4 5 2 2 2 2 4 2 3 3 2 2 2 3 1 1 1 3 3 3 4 4 2 2 4 4 3 2 2 2 4 4 5 5 5 6 6 6 6
8 3 1 4 4 4 3 6 2 3 1 3 4 3 3 4 3 2 3 1 1 2 4 1 4 5 4 4 2 6 4 3 2 3 3 4 3 6 7 7 7 6 5 6 7
7 1 1 6 3 1 2 4 1 2 1 1 2 2 5 5 3 1 3 0 2 0 0 1 2 1 2 3 3 1 4 2 3 3 0 2 3 4 8 9 8 6 6 5 5
4 2 2 2 3 2 3 3 1 4 4 4 3 2 1 4 1 4 3 1 2 1 3 1 2 2 6 5 3 1 2 3 0 2 2 4 4 3 7 8 7 8 6 6 6
4 3 1 1 1 6 5 4 3 2 2 3 4 3 3 0 4 4 4 3 2 1 1 1 2 3 5 2 1 2 3 4 2 2 2 4 6 6 7 8 7 7 7 6 6
1 4 4 4 4 4 5 6 4 4 2 4 1 6 6 3 1 3 2 3 2 2 1 3 3 0 3 1 1 3 4 6 4 5 4 3 9 13 12 10 9 8 7 7 6
5 4 1 4 4 9 8 6 10 4 8 5 5 7 7 6 6 8 6 4 4 3 4 0 2 2 4 4 3 4 8 7 6 5 6 5 6 7 8 8 7 9 9 8 7
7 4 3 9 6 6 6 7 10 9 6 5 9 6 7 6 5 2 4 3 5 7 5 4 5 3 5 4 5 6 8 10 6 6 6 6 6 9 8 13 10 9 8 8 7
Wind_Direction
358 356 1 1 360 358 355 354 351 346 343 342 340 342 345 351 13 87 38 354 348 344 344 349 3 351 337 319 3 58 34 248 299 22 327 340 341 327 312 311 314 353 4 162 138
343 349 352 354 355 354 350 348 347 341 339 337 334 336 344 353 5 61 8 355 348 338 349 352 344 350 356 354 346 119 189 242 326 329 327 322 327 337 351 324 43 30 5 79 120
337 342 345 345 347 350 346 342 341 338 336 335 331 332 348 351 340 64 356 357 12 21 7 338 349 6 3 339 350 303 234 304 299 311 341 314 315 333 346 327 31 352 337 355 349
331 338 339 341 340 343 342 338 336 334 335 337 339 350 353 28 69 7 351 2 5 332 351 17 8 351 360 1 353 345 327 319 316 319 326 309 323 322 287 269 307 308 318 337 182
324 329 333 337 336 337 337 336 332 332 334 339 350 0 19 339 69 351 357 17 17 12 59 46 4 359 25 340 329 277 303 317 320 322 317 295 310 296 296 301 318 305 334 311 122
322 325 332 334 332 333 334 332 329 328 330 336 351 15 3 79 56 343 11 341 26 17 14 58 312 132 166 79 346 297 307 303 294 285 292 302 307 342 305 311 327 340 21 29 147
317 324 329 330 331 331 332 331 327 328 332 336 12 46 359 136 17 12 355 345 43 37 9 39 54 299 213 357 345 288 296 293 274 237 245 7 312 275 306 280 287 2 39 20 60
317 323 327 328 329 330 332 332 330 348 352 17 61 49 340 78 50 4 7 10 26 39 28 299 276 301 41 330 315 324 321 330 304 154 235 100 295 3 338 331 292 65 64 173 60
314 321 325 328 329 333 334 332 347 27 23 85 39 48 112 91 17 340 334 307 314 245 214 221 209 239 222 11 348 44 327 344 349 45 26 53 338 346 336 53 17 80 30 38 56
311 319 322 327 333 337 340 337 42 22 32 339 290 2 22 337 313 316 337 329 293 311 171 67 210 306 279 33 13 356 14 24 23 357 39 38 17 359 14 40 14 98 76 55 55
304 311 321 329 338 346 355 32 16 7 33 107 338 302 51 330 22 235 343 307 219 202 357 174 22 320 355 92 166 4 74 55 9 57 76 58 52 19 9 24 11 18 64 57 54
296 308 321 332 344 6 27 70 97 242 355 312 294 283 129 341 308 352 358 37 356 334 22 16 329 319 33 111 104 80 86 1 60 31 86 63 51 35 20 8 1 28 30 26 54
287 308 320 334 358 28 65 79 108 109 116 350 355 321 338 16 350 314 24 329 349 21 5 166 278 327 9 101 75 52 88 170 163 287 282 298 34 24 12 20 33 28 26 18 36
278 302 320 333 35 44 54 25 94 132 78 339 29 315 354 174 29 277 7 97 283 47 339 268 344 358 323 98 136 133 240 172 169 221 24 92 71 26 360 352 32 11 21 24 29
270 287 323 17 354 83 4 55 40 119 31 310 330 295 272 21 279 293 328 45 44 316 74 273 341 360 336 342 326 200 192 187 139 81 31 3 83 346 118 34 26 42 32 35 43
254 264 293 98 48 12 18 22 103 42 263 348 308 337 331 21 35 304 34 7 66 356 298 274 133 123 240 295 244 280 204 201 344 110 43 336 91 8 21 19 21 27 30 27 33
231 235 182 170 92 356 7 24 41 119 353 292 290 5 336 351 353 18 69 18 71 60 352 327 354 348 10 341 335 4 52 23 357 33 102 311 61 333 27 56 54 47 38 30 36
204 194 159 131 104 56 12 50 90 236 212 215 222 259 97 359 328 9 74 32 23 46 75 81 343 9 351 87 257 309 81 139 155 107 171 14 71 288 101 77 57 58 45 41 37
174 156 129 111 121 68 66 58 201 196 172 152 100 76 330 22 32 20 96 156 70 29 140 88 288 328 60 231 66 330 47 170 105 47 81 135 40 24 108 74 53 42 43 36 30
159 161 183 169 124 101 76 251 192 232 129 151 147 141 172 265 45 58 150 275 153 94 65 166 344 287 301 1 318 301 286 64 359 83 53 205 175 195 167 131 81 57 53 50 28
149 87 231 163 118 46 159 221 228 248 347 150 189 131 188 189 161 246 196 279 63 309 323 174 126 292 41 15 340 348 347 34 123 143 150 158 239 197 163 149 129 109 80 66 57
148 129 146 155 65 353 161 189 300 175 248 167 85 136 173 166 155 226 198 208 121 4 148 340 111 283 227 199 179 136 292 305 118 263 304 138 244 143 135 139 131 124 116 97 75
124 117 85 7 158 226 317 321 240 160 205 173 186 172 187 178 130 163 195 264 49 26 187 304 299 34 345 357 346 291 249 285 209 78 233 127 244 168 126 129 138 130 118 107 97
124 128 17 23 231 138 138 241 239 228 254 172 166 121 91 209 6 183 167 185 176 47 148 340 159 185 191 197 171 297 256 249 163 109 225 205 162 199 169 149 144 131 125 119 113
111 197 178 185 239 175 157 153 149 184 243 191 294 193 163 132 80 239 272 133 198 196 212 121 174 335 283 264 300 240 263 287 252 234 177 230 177 193 181 171 164 152 141 128 116
141 152 252 155 133 149 182 214 178 159 156 228 205 203 183 163 187 195 151 186 196 181 178 83 235 90 302 334 354 271 264 258 260 269 267 212 236 162 161 138 151 156 149 145 142
181 142 136 161 145 135 207 193 194 143 225 196 191 134 197 204 125 71 121 84 160 154 162 135 126 88 270 337 316 331 229 203 189 208 182 206 206 148 155 161 165 158 152 154 153